Location: Usti nad Orlici
(49.9830°N, 16.4000°E)
Time: 02:16:40
(UTC+02:00)

ISS - Pass Details

Date: 25 March 2019
Orbit: 408 x 410 km, 51.6° (Epoch: 23 April)

Event Time Altitude Azimuth Distance (km) Brightness Sun altitude
Rises 20:13:14 0° 257° (WSW) 2,332 0.8 -19.0°
Reaches altitude 10° 20:15:19 10° 258° (WSW) 1,472 -0.3 -19.3°
Maximum altitude 20:18:37 81° 347° (NNW) 419 -3.8 -19.8°
Enters shadow 20:18:44 78° 23° (NNE) 422 -3.9 -19.8°
